Regional Weather Roundup
Issued by NWS

Home | Current Version | Previous Version | Graphics & Text | Print | Product List | Glossary On
Versions: 1 2 3 4 5 6 7 8 9 10 11 12 13 14 15 16 17 18 19 20 21 22 23 24 25 26 27 28 29 30 31 32 33 34 35 36 37 38 39 40 41 42 43 44 45 46 47 48 49 50
537
ASUS43 KOAX 081410
RWRNE

WEATHER ROUNDUP FOR NEBRASKA
NATIONAL WEATHER SERVICE OMAHA NE
800 AM CST THU DEC 08 2016

NOTES: SATELLITE DATA IS BEING USED TO AUGMENT CLOUD COVER ABOVE
       12000 FEET.
       "FAIR" INDICATES FEW OR NO CLOUDS BELOW 12,000 FEET WITH NO
       SIGNIFICANT WEATHER AND/OR OBSTRUCTIONS TO VISIBILITY.

  * THESE STATIONS DO NOT REPORT WEATHER SUCH AS RAIN...SNOW OR FOG.

NEZ001>004-019>022-054>056-081500-
NEBRASKA PANHANDLE

CITY           SKY/WX    TMP DP  RH WIND       PRES   REMARKS
SCOTTSBLUFF    CLOUDY    -9 -14  78 NW9       30.53R WCI -26
ALLIANCE       CLOUDY   -12 -17  78 W7        30.50S WCI -27
CHADRON        CLOUDY    -2  -9  72 SW6       30.58R WCI -14
KIMBALL        CLOUDY   -13 -18  81 W8        30.43S WCI -31
SIDNEY         CLOUDY   -12 -17  78 NW9       30.49R WCI -30
$$

NEZ057>060-069>072-079>082-081500-
SOUTHWEST NEBRASKA

CITY           SKY/WX    TMP DP  RH WIND       PRES   REMARKS
NORTH PLATTE   CLEAR      0  -6  76 NW9       30.60R WCI -15
IMPERIAL       CLOUDY    -3 -10  72 NW10      30.57R WCI -20
LEXINGTON      CLEAR      4  -3  74 NW12      30.60R WCI -12
MCCOOK         CLOUDY    -5 -10  79 SW9       30.63R WCI -22
OGALLALA       CLEAR      1  -6  72 NW9       30.57R WCI -14
$$

NEZ005>010-023>029-035>040-094-081500-
NORTH CENTRAL NEBRASKA

CITY           SKY/WX    TMP DP  RH WIND       PRES   REMARKS
VALENTINE      CLEAR      2  -5  72 NW10      30.60R WCI -14
AINSWORTH      CLEAR      4  -2  74 NW13      30.57R WCI -12
BROKEN BOW     CLEAR      6  -2  69 NW18      30.56R WCI -13
O`NEILL        CLEAR      7   0  73 NW17G28   30.58R WCI -11
ORD            CLEAR      7  -3  64 NW15G25   30.58R WCI -10
THEDFORD       CLEAR      3  -4  74 NW9       30.57R WCI -12
$$

NEZ041-046>049-061>064-073>077-083>087-081500-
SOUTH CENTRAL NEBRASKA

CITY           SKY/WX    TMP DP  RH WIND       PRES   REMARKS
GRAND ISLAND   CLEAR      7   0  73 NW13      30.60R WCI  -9
AURORA         CLEAR      9   0  68 NW20G26   30.59R WCI -11
HASTINGS       CLEAR      8  -1  66 NW12      30.61R WCI  -7
HEBRON         CLEAR     10   3  74 NW9       30.62R WCI  -3
HOLDREGE       CLEAR      5  -2  72 NW9       30.60R WCI  -9
KEARNEY *      CLEAR      7  -4  61 NW14      30.59R WCI -10
YORK           CLEAR      9   1  72 NW15G23   30.59R WCI  -8
$$

NEZ011>018-030>034-042>045-081500-
NORTHEAST NEBRASKA

CITY           SKY/WX    TMP DP  RH WIND       PRES   REMARKS
NORFOLK        CLEAR      7   0  73 NW15      30.55R WCI -10
ALBION         CLEAR      7   0  71 NW13G18   30.58R WCI  -9
BLAIR          CLEAR     10   4  75 NW10G18   30.55R WCI  -3
FREMONT        CLEAR     10   4  77 W16G23    30.58R WCI  -8
TEKAMAH        PTCLDY    10   3  73 NW17      30.57R WCI  -8
WAYNE          PTCLDY     9   3  77 NW17G24   30.55R WCI  -9
$$

NEZ050>053-065>068-078-088>093-081500-
SOUTHEAST NEBRASKA

CITY           SKY/WX    TMP DP  RH WIND       PRES   REMARKS
LINCOLN        CLEAR     11   1  64 NW13      30.61R WCI  -4
OMAHA EPPLEY   PTCLDY    11   3  70 NW17      30.57R WCI  -6
BEATRICE       CLEAR     11   4  71 NW12      30.60R WCI  -3
FALLS CITY     CLEAR     13   5  70 NW10      30.59R WCI   0
NEBRASKA CITY  CLEAR     11   1  63 NW13G20   30.58R WCI  -4
PLATTSMOUTH    CLEAR     11   2  66 NW14G20   30.56R WCI  -5
$$

NEZ044-045-051>053-067-081500-
OMAHA AREA

CITY           SKY/WX    TMP DP  RH WIND       PRES   REMARKS
OMAHA EPPLEY   PTCLDY    11   3  70 NW17      30.57R WCI  -6
BLAIR          CLEAR     10   4  75 NW10G18   30.55R WCI  -3
FREMONT        CLEAR     10   4  77 W16G23    30.58R WCI  -8
MILLARD        CLEAR     12   3  67 NW16G23   30.58R WCI  -5
OFFUTT AFB     CLEAR     11   3  70 NW13G21   30.57R WCI  -4
PLATTSMOUTH    CLEAR     11   2  66 NW14G20   30.56R WCI  -5
WAHOO          FAIR      10   3  71 NW18G25   30.57R WCI  -8
$$




USA.gov is the U.S. government's official web portal to all federal, state and local government web resources and services.